Time,TemperatureF,DewpointF,PressureIn,WindDirection,WindDirectionDegrees,WindSpeedMPH,WindSpeedGustMPH,Humidity,HourlyPrecipIn,Conditions,Clouds,dailyrainin,SoftwareType,DateUTC
2013-05-21 00:03:00,50.0,-99.9,-100.00,ESE,110,7.0,8.0,-999,-99.99,,,-99.99,,2013-05-21 04:03:00,
2013-05-21 00:13:00,50.0,-99.9,-100.00,ESE,110,7.0,8.0,-999,-99.99,,,-99.99,,2013-05-21 04:13:00,
2013-05-21 00:23:00,51.0,-99.9,-100.00,ESE,120,6.0,7.0,-999,-99.99,,,-99.99,,2013-05-21 04:23:00,
2013-05-21 00:33:00,52.0,-99.9,-100.00,SSE,150,6.0,7.0,-999,-99.99,,,-99.99,,2013-05-21 04:33:00,
2013-05-21 00:42:00,52.0,-99.9,-100.00,SSE,150,6.0,7.0,-999,-99.99,,,-99.99,,2013-05-21 04:42:00,
2013-05-21 00:53:00,52.0,-99.9,-100.00,East,100,3.0,5.0,-999,-99.99,,,-99.99,,2013-05-21 04:53:00,
2013-05-21 01:02:00,51.0,-99.9,-100.00,East,80,5.0,6.0,-999,-99.99,,,-99.99,,2013-05-21 05:02:00,
2013-05-21 01:12:00,51.0,-99.9,-100.00,East,80,5.0,6.0,-999,-99.99,,,-99.99,,2013-05-21 05:12:00,
2013-05-21 01:22:00,51.0,-99.9,-100.00,East,80,3.0,5.0,-999,-99.99,,,-99.99,,2013-05-21 05:22:00,
2013-05-21 01:32:00,52.0,-99.9,-100.00,East,90,1.0,3.0,-999,-99.99,,,-99.99,,2013-05-21 05:32:00,
2013-05-21 01:43:00,52.0,-99.9,-100.00,East,90,1.0,3.0,-999,-99.99,,,-99.99,,2013-05-21 05:43:00,
2013-05-21 01:52:00,52.0,-99.9,-100.00,NNE,30,5.0,5.0,-999,-99.99,,,-99.99,,2013-05-21 05:52:00,
2013-05-21 02:02:00,52.0,-99.9,-100.00,ENE,60,6.0,8.0,-999,-99.99,,,-99.99,,2013-05-21 06:02:00,
2013-05-21 02:12:00,52.0,-99.9,-100.00,ENE,60,6.0,8.0,-999,-99.99,,,-99.99,,2013-05-21 06:12:00,
2013-05-21 02:21:00,50.0,-99.9,-100.00,NE,50,6.0,9.0,-999,-99.99,,,-99.99,,2013-05-21 06:21:00,
2013-05-21 02:32:00,50.0,-99.9,-100.00,NE,50,6.0,9.0,-999,-99.99,,,-99.99,,2013-05-21 06:32:00,
2013-05-21 02:42:00,48.0,-99.9,-100.00,NE,40,8.0,11.0,-999,-99.99,,,-99.99,,2013-05-21 06:42:00,
2013-05-21 02:52:00,48.0,-99.9,-100.00,ENE,70,7.0,9.0,-999,-99.99,,,-99.99,,2013-05-21 06:52:00,
2013-05-21 03:02:00,48.0,-99.9,-100.00,East,80,7.0,10.0,-999,-99.99,,,-99.99,,2013-05-21 07:02:00,
2013-05-21 03:11:00,48.0,-99.9,-100.00,East,80,7.0,10.0,-999,-99.99,,,-99.99,,2013-05-21 07:11:00,
2013-05-21 03:22:00,48.0,-99.9,-100.00,East,80,7.0,9.0,-999,-99.99,,,-99.99,,2013-05-21 07:22:00,
2013-05-21 03:32:00,49.0,-99.9,-100.00,East,80,9.0,11.0,-999,-99.99,,,-99.99,,2013-05-21 07:32:00,
2013-05-21 03:42:00,49.0,-99.9,-100.00,East,80,9.0,11.0,-999,-99.99,,,-99.99,,2013-05-21 07:42:00,
2013-05-21 03:52:00,50.0,-99.9,-100.00,East,90,9.0,11.0,-999,-99.99,,,-99.99,,2013-05-21 07:52:00,
2013-05-21 04:02:00,50.0,-99.9,-100.00,East,90,9.0,11.0,-999,-99.99,,,-99.99,,2013-05-21 08:02:00,
2013-05-21 04:11:00,50.0,-99.9,-100.00,East,90,13.0,14.0,-999,-99.99,,,-99.99,,2013-05-21 08:11:00,
2013-05-21 04:21:00,50.0,-99.9,-100.00,East,80,10.0,13.0,-999,-99.99,,,-99.99,,2013-05-21 08:21:00,
2013-05-21 04:31:00,50.0,-99.9,-100.00,East,80,10.0,13.0,-999,-99.99,,,-99.99,,2013-05-21 08:31:00,
2013-05-21 04:42:00,50.0,-99.9,-100.00,East,90,10.0,13.0,-999,-99.99,,,-99.99,,2013-05-21 08:42:00,
2013-05-21 04:52:00,51.0,-99.9,-100.00,East,80,11.0,14.0,-999,-99.99,,,-99.99,,2013-05-21 08:52:00,
2013-05-21 05:01:00,50.0,-99.9,-100.00,East,80,11.0,15.0,-999,-99.99,,,-99.99,,2013-05-21 09:01:00,
2013-05-21 05:11:00,50.0,-99.9,-100.00,East,80,11.0,15.0,-999,-99.99,,,-99.99,,2013-05-21 09:11:00,
2013-05-21 05:21:00,50.0,-99.9,-100.00,East,90,13.0,15.0,-999,-99.99,,,-99.99,,2013-05-21 09:21:00,
2013-05-21 05:30:00,49.0,-99.9,-100.00,East,90,10.0,13.0,-999,-99.99,,,-99.99,,2013-05-21 09:30:00,
2013-05-21 05:33:00,49.0,-99.9,-100.00,East,90,10.0,14.0,-999,-99.99,,,-99.99,,2013-05-21 09:33:00,
2013-05-21 05:42:00,49.0,-99.9,-100.00,East,90,10.0,14.0,-999,-99.99,,,-99.99,,2013-05-21 09:42:00,
2013-05-21 05:53:00,49.0,-99.9,-100.00,East,90,8.0,10.0,-999,-99.99,,,-99.99,,2013-05-21 09:53:00,
2013-05-21 06:03:00,49.0,-99.9,-100.00,East,90,8.0,10.0,-999,-99.99,,,-99.99,,2013-05-21 10:03:00,
2013-05-21 06:12:00,49.0,-99.9,-100.00,East,90,10.0,13.0,-999,-99.99,,,-99.99,,2013-05-21 10:12:00,
2013-05-21 06:22:00,49.0,-99.9,-100.00,East,90,10.0,13.0,-999,-99.99,,,-99.99,,2013-05-21 10:22:00,
2013-05-21 06:42:00,49.0,-99.9,-100.00,East,100,10.0,13.0,-999,-99.99,,,-99.99,,2013-05-21 10:42:00,
2013-05-21 06:53:00,49.0,-99.9,-100.00,East,100,11.0,15.0,-999,-99.99,,,-99.99,,2013-05-21 10:53:00,
2013-05-21 07:02:00,49.0,-99.9,-100.00,East,100,11.0,15.0,-999,-99.99,,,-99.99,,2013-05-21 11:02:00,
2013-05-21 07:12:00,48.0,-99.9,-100.00,ESE,110,14.0,17.0,-999,-99.99,,,-99.99,,2013-05-21 11:12:00,
2013-05-21 07:22:00,48.0,-99.9,-100.00,East,100,13.0,17.0,-999,-99.99,,,-99.99,,2013-05-21 11:22:00,
2013-05-21 07:32:00,48.0,-99.9,-100.00,ESE,120,5.0,6.0,-999,-99.99,,,-99.99,,2013-05-21 11:32:00,
2013-05-21 07:42:00,48.0,-99.9,-100.00,ESE,120,5.0,6.0,-999,-99.99,,,-99.99,,2013-05-21 11:42:00,
2013-05-21 07:52:00,48.0,-99.9,-100.00,NNE,30,2.0,8.0,-999,-99.99,,,-99.99,,2013-05-21 11:52:00,
2013-05-21 08:02:00,48.0,-99.9,-100.00,NNE,30,2.0,8.0,-999,-99.99,,,-99.99,,2013-05-21 12:02:00,
2013-05-21 08:11:00,48.0,-99.9,-100.00,NNE,30,2.0,8.0,-999,-99.99,,,-99.99,,2013-05-21 12:11:00,
2013-05-21 08:21:00,48.0,-99.9,-100.00,East,80,10.0,14.0,-999,-99.99,,,-99.99,,2013-05-21 12:21:00,
2013-05-21 08:32:00,48.0,-99.9,-100.00,East,80,9.0,13.0,-999,-99.99,,,-99.99,,2013-05-21 12:32:00,
2013-05-21 08:42:00,48.0,-99.9,-100.00,East,80,9.0,13.0,-999,-99.99,,,-99.99,,2013-05-21 12:42:00,
2013-05-21 08:52:00,48.0,-99.9,-100.00,SE,130,3.0,6.0,-999,-99.99,,,-99.99,,2013-05-21 12:52:00,
2013-05-21 09:01:00,49.0,-99.9,-100.00,ENE,60,2.0,6.0,-999,-99.99,,,-99.99,,2013-05-21 13:01:00,
2013-05-21 09:12:00,49.0,-99.9,-100.00,ENE,60,2.0,6.0,-999,-99.99,,,-99.99,,2013-05-21 13:12:00,
2013-05-21 09:22:00,49.0,-99.9,-100.00,NE,50,8.0,14.0,-999,-99.99,,,-99.99,,2013-05-21 13:22:00,
2013-05-21 09:32:00,49.0,-99.9,-100.00,NE,50,8.0,14.0,-999,-99.99,,,-99.99,,2013-05-21 13:32:00,
2013-05-21 09:42:00,49.0,-99.9,-100.00,ENE,60,7.0,9.0,-999,-99.99,,,-99.99,,2013-05-21 13:42:00,
2013-05-21 09:52:00,49.0,-99.9,-100.00,ENE,60,7.0,13.0,-999,-99.99,,,-99.99,,2013-05-21 13:52:00,
2013-05-21 10:02:00,49.0,-99.9,-100.00,ENE,70,8.0,14.0,-999,-99.99,,,-99.99,,2013-05-21 14:02:00,
2013-05-21 10:11:00,49.0,-99.9,-100.00,ENE,70,8.0,14.0,-999,-99.99,,,-99.99,,2013-05-21 14:11:00,
2013-05-21 10:21:00,48.0,-99.9,-100.00,ENE,70,16.0,24.0,-999,-99.99,,,-99.99,,2013-05-21 14:21:00,
2013-05-21 10:32:00,48.0,-99.9,-100.00,ESE,110,14.0,17.0,-999,-99.99,,,-99.99,,2013-05-21 14:32:00,
2013-05-21 10:42:00,48.0,-99.9,-100.00,ESE,110,14.0,17.0,-999,-99.99,,,-99.99,,2013-05-21 14:42:00,
2013-05-21 10:52:00,48.0,-99.9,-100.00,ESE,110,10.0,11.0,-999,-99.99,,,-99.99,,2013-05-21 14:52:00,
2013-05-21 11:01:00,48.0,-99.9,-100.00,ESE,110,10.0,13.0,-999,-99.99,,,-99.99,,2013-05-21 15:01:00,
2013-05-21 11:11:00,48.0,-99.9,-100.00,ESE,110,10.0,13.0,-999,-99.99,,,-99.99,,2013-05-21 15:11:00,
2013-05-21 11:21:00,48.0,-99.9,-100.00,East,100,8.0,9.0,-999,-99.99,,,-99.99,,2013-05-21 15:21:00,
2013-05-21 11:33:00,47.0,-99.9,-100.00,SE,140,3.0,6.0,-999,-99.99,,,-99.99,,2013-05-21 15:33:00,
2013-05-21 11:43:00,47.0,-99.9,-100.00,SE,140,3.0,6.0,-999,-99.99,,,-99.99,,2013-05-21 15:43:00,
2013-05-21 11:53:00,47.0,-99.9,-100.00,SE,130,7.0,8.0,-999,-99.99,,,-99.99,,2013-05-21 15:53:00,
2013-05-21 12:03:00,47.0,-99.9,-100.00,SE,130,7.0,8.0,-999,-99.99,,,-99.99,,2013-05-21 16:03:00,
2013-05-21 12:13:00,47.0,-99.9,-100.00,SE,130,9.0,10.0,-999,-99.99,,,-99.99,,2013-05-21 16:13:00,
2013-05-21 12:23:00,47.0,-99.9,-100.00,ESE,110,5.0,6.0,-999,-99.99,,,-99.99,,2013-05-21 16:23:00,
2013-05-21 12:32:00,47.0,-99.9,-100.00,ESE,110,5.0,6.0,-999,-99.99,,,-99.99,,2013-05-21 16:32:00,
2013-05-21 12:42:00,47.0,-99.9,-100.00,SE,130,6.0,7.0,-999,-99.99,,,-99.99,,2013-05-21 16:42:00,
2013-05-21 12:53:00,48.0,-99.9,-100.00,ESE,120,5.0,6.0,-999,-99.99,,,-99.99,,2013-05-21 16:53:00,
2013-05-21 13:02:00,48.0,-99.9,-100.00,SE,130,6.0,6.0,-999,-99.99,,,-99.99,,2013-05-21 17:02:00,
2013-05-21 13:12:00,48.0,-99.9,-100.00,SE,130,6.0,6.0,-999,-99.99,,,-99.99,,2013-05-21 17:12:00,
2013-05-21 13:23:00,48.0,-99.9,-100.00,SE,130,3.0,5.0,-999,-99.99,,,-99.99,,2013-05-21 17:23:00,
2013-05-21 13:33:00,51.0,-99.9,-100.00,South,180,6.0,8.0,-999,-99.99,,,-99.99,,2013-05-21 17:33:00,
2013-05-21 13:44:00,51.0,-99.9,-100.00,South,180,6.0,8.0,-999,-99.99,,,-99.99,,2013-05-21 17:44:00,
2013-05-21 13:53:00,50.0,-99.9,-100.00,ESE,120,2.0,5.0,-999,-99.99,,,-99.99,,2013-05-21 17:53:00,
2013-05-21 14:02:00,50.0,-99.9,-100.00,ESE,120,2.0,3.0,-999,-99.99,,,-99.99,,2013-05-21 18:02:00,
2013-05-21 14:13:00,50.0,-99.9,-100.00,ESE,120,2.0,3.0,-999,-99.99,,,-99.99,,2013-05-21 18:13:00,
2013-05-21 14:22:00,50.0,-99.9,-100.00,ESE,120,5.0,6.0,-999,-99.99,,,-99.99,,2013-05-21 18:22:00,
2013-05-21 14:32:00,51.0,-99.9,-100.00,ESE,110,5.0,6.0,-999,-99.99,,,-99.99,,2013-05-21 18:32:00,
2013-05-21 14:42:00,51.0,-99.9,-100.00,ESE,110,5.0,6.0,-999,-99.99,,,-99.99,,2013-05-21 18:42:00,
2013-05-21 14:52:00,52.0,-99.9,-100.00,ESE,110,5.0,6.0,-999,-99.99,,,-99.99,,2013-05-21 18:52:00,
2013-05-21 15:02:00,54.0,-99.9,-100.00,East,100,5.0,5.0,-999,-99.99,,,-99.99,,2013-05-21 19:02:00,
2013-05-21 15:12:00,54.0,-99.9,-100.00,East,100,5.0,5.0,-999,-99.99,,,-99.99,,2013-05-21 19:12:00,
2013-05-21 15:22:00,55.0,-99.9,-100.00,ESE,120,3.0,5.0,-999,-99.99,,,-99.99,,2013-05-21 19:22:00,
2013-05-21 15:32:00,54.0,-99.9,-100.00,SE,130,7.0,7.0,-999,-99.99,,,-99.99,,2013-05-21 19:32:00,
2013-05-21 15:42:00,54.0,-99.9,-100.00,SE,130,7.0,7.0,-999,-99.99,,,-99.99,,2013-05-21 19:42:00,
2013-05-21 15:52:00,54.0,-99.9,-100.00,SE,140,6.0,7.0,-999,-99.99,,,-99.99,,2013-05-21 19:52:00,
2013-05-21 16:03:00,54.0,-99.9,-100.00,SE,140,6.0,7.0,-999,-99.99,,,-99.99,,2013-05-21 20:03:00,
2013-05-21 16:11:00,56.0,-99.9,-100.00,SE,140,2.0,3.0,-999,-99.99,,,-99.99,,2013-05-21 20:11:00,
2013-05-21 16:22:00,57.0,-99.9,-100.00,SE,130,8.0,9.0,-999,-99.99,,,-99.99,,2013-05-21 20:22:00,
2013-05-21 16:33:00,57.0,-99.9,-100.00,East,100,10.0,13.0,-999,-99.99,,,-99.99,,2013-05-21 20:33:00,
2013-05-21 16:42:00,57.0,-99.9,-100.00,East,100,10.0,13.0,-999,-99.99,,,-99.99,,2013-05-21 20:42:00,
2013-05-21 16:52:00,55.0,-99.9,-100.00,East,100,13.0,14.0,-999,-99.99,,,-99.99,,2013-05-21 20:52:00,
2013-05-21 17:02:00,55.0,-99.9,-100.00,East,100,13.0,14.0,-999,-99.99,,,-99.99,,2013-05-21 21:02:00,
2013-05-21 17:11:00,52.0,-99.9,-100.00,East,100,13.0,15.0,-999,-99.99,,,-99.99,,2013-05-21 21:11:00,
2013-05-21 17:22:00,51.0,-99.9,-100.00,East,100,14.0,17.0,-999,-99.99,,,-99.99,,2013-05-21 21:22:00,
2013-05-21 17:33:00,51.0,-99.9,-100.00,East,100,14.0,17.0,-999,-99.99,,,-99.99,,2013-05-21 21:33:00,
2013-05-21 17:44:00,52.0,-99.9,-100.00,ESE,120,7.0,8.0,-999,-99.99,,,-99.99,,2013-05-21 21:44:00,
2013-05-21 17:54:00,52.0,-99.9,-100.00,ESE,120,7.0,8.0,-999,-99.99,,,-99.99,,2013-05-21 21:54:00,
2013-05-21 18:02:00,52.0,-99.9,-100.00,ESE,120,7.0,8.0,-999,-99.99,,,-99.99,,2013-05-21 22:02:00,
2013-05-21 18:13:00,52.0,-99.9,-100.00,SSE,160,6.0,8.0,-999,-99.99,,,-99.99,,2013-05-21 22:13:00,
2013-05-21 18:23:00,52.0,-99.9,-100.00,SSE,150,3.0,5.0,-999,-99.99,,,-99.99,,2013-05-21 22:23:00,
2013-05-21 18:34:00,52.0,-99.9,-100.00,SSE,150,3.0,5.0,-999,-99.99,,,-99.99,,2013-05-21 22:34:00,
2013-05-21 18:42:00,55.0,-99.9,-100.00,SE,140,2.0,3.0,-999,-99.99,,,-99.99,,2013-05-21 22:42:00,
2013-05-21 18:53:00,53.0,-99.9,-100.00,SE,140,3.0,5.0,-999,-99.99,,,-99.99,,2013-05-21 22:53:00,
2013-05-21 19:02:00,53.0,-99.9,-100.00,SE,140,3.0,5.0,-999,-99.99,,,-99.99,,2013-05-21 23:02:00,
2013-05-21 19:12:00,56.0,-99.9,-100.00,SSE,160,2.0,3.0,-999,-99.99,,,-99.99,,2013-05-21 23:12:00,
2013-05-21 19:22:00,59.0,-99.9,-100.00,South,170,2.0,3.0,-999,-99.99,,,-99.99,,2013-05-21 23:22:00,
2013-05-21 19:32:00,58.0,-99.9,-100.00,ESE,110,1.0,5.0,-999,-99.99,,,-99.99,,2013-05-21 23:32:00,
2013-05-21 19:42:00,58.0,-99.9,-100.00,ESE,110,1.0,5.0,-999,-99.99,,,-99.99,,2013-05-21 23:42:00,
2013-05-21 19:52:00,55.0,-99.9,-100.00,ESE,110,8.0,9.0,-999,-99.99,,,-99.99,,2013-05-21 23:52:00,
2013-05-21 20:02:00,55.0,-99.9,-100.00,East,100,7.0,8.0,-999,-99.99,,,-99.99,,2013-05-22 00:02:00,
2013-05-21 20:11:00,55.0,-99.9,-100.00,East,100,7.0,8.0,-999,-99.99,,,-99.99,,2013-05-22 00:11:00,
2013-05-21 20:22:00,55.0,-99.9,-100.00,East,90,6.0,7.0,-999,-99.99,,,-99.99,,2013-05-22 00:22:00,
2013-05-21 20:32:00,55.0,-99.9,-100.00,East,90,6.0,7.0,-999,-99.99,,,-99.99,,2013-05-22 00:32:00,
2013-05-21 20:42:00,56.0,-99.9,-100.00,East,80,5.0,8.0,-999,-99.99,,,-99.99,,2013-05-22 00:42:00,
2013-05-21 20:52:00,56.0,-99.9,-100.00,NE,40,5.0,7.0,-999,-99.99,,,-99.99,,2013-05-22 00:52:00,
2013-05-21 21:01:00,56.0,-99.9,-100.00,NE,40,5.0,7.0,-999,-99.99,,,-99.99,,2013-05-22 01:01:00,
2013-05-21 21:11:00,53.0,-99.9,-100.00,NE,50,6.0,8.0,-999,-99.99,,,-99.99,,2013-05-22 01:11:00,
2013-05-21 21:22:00,52.0,-99.9,-100.00,NE,50,3.0,6.0,-999,-99.99,,,-99.99,,2013-05-22 01:22:00,
2013-05-21 21:32:00,50.0,-99.9,-100.00,NE,50,6.0,7.0,-999,-99.99,,,-99.99,,2013-05-22 01:32:00,
2013-05-21 21:42:00,50.0,-99.9,-100.00,NE,50,6.0,7.0,-999,-99.99,,,-99.99,,2013-05-22 01:42:00,
2013-05-21 21:52:00,49.0,-99.9,-100.00,NNE,30,6.0,8.0,-999,-99.99,,,-99.99,,2013-05-22 01:52:00,
2013-05-21 22:02:00,48.0,-99.9,-100.00,North,10,5.0,8.0,-999,-99.99,,,-99.99,,2013-05-22 02:02:00,
2013-05-21 22:12:00,48.0,-99.9,-100.00,North,10,5.0,8.0,-999,-99.99,,,-99.99,,2013-05-22 02:12:00,
2013-05-21 22:22:00,48.0,-99.9,-100.00,NNW,340,7.0,10.0,-999,-99.99,,,-99.99,,2013-05-22 02:22:00,
2013-05-21 22:32:00,48.0,-99.9,-100.00,NNW,340,7.0,10.0,-999,-99.99,,,-99.99,,2013-05-22 02:32:00,
2013-05-21 22:42:00,47.0,-99.9,-100.00,North,360,7.0,10.0,-999,-99.99,,,-99.99,,2013-05-22 02:42:00,
2013-05-21 22:52:00,47.0,-99.9,-100.00,North,10,6.0,8.0,-999,-99.99,,,-99.99,,2013-05-22 02:52:00,
2013-05-21 23:02:00,47.0,-99.9,-100.00,North,10,6.0,8.0,-999,-99.99,,,-99.99,,2013-05-22 03:02:00,
2013-05-21 23:11:00,47.0,-99.9,-100.00,North,10,7.0,9.0,-999,-99.99,,,-99.99,,2013-05-22 03:11:00,
2013-05-21 23:22:00,47.0,-99.9,-100.00,NNE,30,6.0,7.0,-999,-99.99,,,-99.99,,2013-05-22 03:22:00,
2013-05-21 23:33:00,47.0,-99.9,-100.00,NNE,20,5.0,8.0,-999,-99.99,,,-99.99,,2013-05-22 03:33:00,
2013-05-21 23:43:00,47.0,-99.9,-100.00,NNE,20,5.0,8.0,-999,-99.99,,,-99.99,,2013-05-22 03:43:00,
2013-05-21 23:53:00,47.0,-99.9,-100.00,North,360,5.0,7.0,-999,-99.99,,,-99.99,,2013-05-22 03:53:00,